Simultaneous Nadir Overpasses (SNOs) Predictions

Prediction of SNOs between METOP-B and NOAA-19 Satellite Orbit:

Table of predicted SNOs for the next 14.0 days since TLE Epoch: 8/2/2019
Index Date (METOP-B) Time (METOP-B) Lat,Lon (METOP-B) SZA (METOP-B ) Date (NOAA-19) Time (NOAA-19) Lat,Lon (NOAA-19) SZA (NOAA-19 ) Distance(km) Time Diff (sec)
1 08/07/2019 05:24:29 79.41, 115.76 63.27 08/07/2019 05:23:23 79.43, 115.79 63.27 2.11 66
2 08/07/2019 06:15:10 -79.40, -76.93 116.73 08/07/2019 06:14:21 -79.43, -77.01 116.72 3.32 49
3 08/07/2019 07:05:50 79.43, 90.57 63.31 08/07/2019 07:05:23 79.40, 90.51 63.28 3.03 27
4 08/07/2019 07:56:32 -79.39,-102.39 116.73 08/07/2019 07:56:21 -79.41,-102.29 116.71 2.80 11
5 08/07/2019 08:47:12 79.41, 65.12 63.31 08/07/2019 08:47:24 79.41, 64.95 63.30 3.37 12
6 08/07/2019 09:37:53 -79.41,-127.57 116.69 08/07/2019 09:38:21 -79.39,-127.57 116.70 2.74 28
7 08/07/2019 10:28:34 79.40, 39.67 63.31 08/07/2019 10:29:24 79.38, 39.68 63.31 1.57 50
8 08/07/2019 11:19:15 -79.40,-153.02 116.69 08/07/2019 11:20:22 -79.39,-153.13 116.68 2.33 67




NCC Satellite Simultaneous Nadir Overpasses (SNOs) Prediction Service
